This is the latest recevied weather packets stored in our database for station/object N7CW. If no packets are shown the sender has not sent any weather packets the latest 10 day(s).
| Time | Temp. | Humidity | Pressure | Rain* | Wind** | Luminosity | Snow |
|---|---|---|---|---|---|---|---|
| 1777909434 | 13.33° C | 47% | 1015.3 hPa | 0 mm | - | 321 W/m² | - |
| 1777909133 | 12.78° C | 48% | 1015.2 hPa | 0 mm | - | 273 W/m² | - |
| 1777908830 | 12.78° C | 48% | 1015.1 hPa | 0 mm | - | 249 W/m² | - |
| 1777908526 | 12.78° C | 48% | 1015.2 hPa | 0 mm | - | 257 W/m² | - |
| 1777908224 | 12.78° C | 47% | 1014.9 hPa | 0 mm | - | 215 W/m² | - |
| 1777907920 | 12.78° C | 47% | 1014.9 hPa | 0 mm | - | 251 W/m² | - |
| 1777907616 | 12.78° C | 47% | 1015.1 hPa | 0 mm | - | 272 W/m² | - |
| 1777907311 | 12.78° C | 47% | 1014.8 hPa | 0 mm | - | 239 W/m² | - |
| 1777907008 | 12.78° C | 47% | 1015.2 hPa | 0 mm | - | 264 W/m² | - |
| 1777906706 | 12.78° C | 48% | 1015.1 hPa | 0 mm | - | 162 W/m² | - |
| 1777906402 | 12.22° C | 48% | 1014.8 hPa | 0 mm | - | 168 W/m² | - |
| 1777906099 | 12.22° C | 49% | 1014.4 hPa | 0 mm | - | 177 W/m² | - |
| 1777905795 | 12.78° C | 50% | 1014.2 hPa | 0 mm | - | 183 W/m² | - |
| 1777905493 | 12.22° C | 51% | 1014.5 hPa | 0 mm | - | 173 W/m² | - |
| 1777905189 | 11.67° C | 52% | 1014.8 hPa | 0 mm | - | 148 W/m² | - |
| 1777904887 | 11.67° C | 53% | 1014.8 hPa | 0 mm | - | 133 W/m² | - |
| 1777904584 | 11.67° C | 55% | 1014.5 hPa | 0 mm | - | 119 W/m² | - |
| 1777904281 | 11.67° C | 54% | 1014.8 hPa | 0 mm | - | 120 W/m² | - |
| 1777903978 | 11.11° C | 55% | 1014.7 hPa | 0 mm | - | 100 W/m² | - |
| 1777903674 | 11.11° C | 55% | 1014.6 hPa | 0 mm | - | 88 W/m² | - |
| 1777903370 | 11.11° C | 55% | 1014.5 hPa | 0 mm | - | 77 W/m² | - |
| 1777903067 | 11.11° C | 56% | 1014.7 hPa | 0 mm | - | 69 W/m² | - |
| 1777902763 | 11.11° C | 56% | 1014.7 hPa | 0 mm | - | 63 W/m² | - |
| 1777902461 | 11.11° C | 56% | 1014.8 hPa | 0 mm | - | 60 W/m² | - |
| 1777902157 | 11.11° C | 56% | 1014.7 hPa | 0 mm | - | 54 W/m² | - |
* Rain latest hour (hover to see other rain measurements)
** Current wind speed in m/s (hover to see current wind gust speed)